Date String (YYYY-MM-DD hh:mm:ss) UTC,Instrument flags,Ambient pressure (hPa),Sample flow (lpm),Bypass flow (lpm),Sample temperature (°C),Ambient temperature (°C),ASC tube jacket temperature (°C),LED temperature (°C),Box temperature (°C),Sample RH (%),Span deviation,Mass concentration (μg/m³),Mass concentration (μg/m³),Mass concentration (μg/m³)
DateTimeUTC,F1_M11,P_M11,Q1_M11,Q2_M11,T1_M11,T2_M11,T3_M11,T4_M11,T5_M11,U1_M11,ZSPAN_M11,X0_M11,X2_M11,X1_M11
2022-10-01 08:00:00,,0826.8,5.00,0.00,30.4,29.0,00.0,39.2,32.3,24.9,0000.0,0004.81,0001.38,0000.76
2022-10-01 08:01:00,,0826.8,5.00,0.00,30.4,29.0,00.0,39.2,32.3,24.8,0000.0,0004.87,0001.40,0000.75
2022-10-01 08:02:00,,0826.8,5.01,0.00,30.4,29.0,00.0,39.2,32.2,24.7,0000.0,0004.78,0001.41,0000.74
2022-10-01 08:03:00,,0826.8,5.00,0.00,30.4,29.0,00.0,39.2,32.2,24.5,0000.0,0004.12,0001.37,0000.73
2022-10-01 08:04:00,,0826.8,4.99,0.00,30.4,29.0,00.0,39.2,32.3,24.4,0000.0,0004.22,0001.38,0000.72
2022-10-01 08:05:00,,0826.9,4.99,0.00,30.4,28.9,00.0,39.2,32.3,24.5,0000.0,0004.35,0001.40,0000.71
2022-10-01 08:06:00,,0827.1,5.01,0.00,30.4,29.0,00.0,39.2,32.3,24.6,0000.0,0005.09,0001.48,0000.70
2022-10-01 08:07:00,,0826.9,5.00,0.00,30.4,29.0,00.0,39.2,32.3,24.6,0000.0,0005.27,0001.55,0000.70
2022-10-01 08:08:00,,0826.9,4.99,0.00,30.4,29.0,00.0,39.2,32.3,24.6,0000.0,0005.19,0001.56,0000.71
2022-10-01 08:09:00,,0826.9,4.99,0.00,30.4,28.9,00.0,39.2,32.3,24.6,0000.0,0004.46,0001.56,0000.71
2022-10-01 08:10:00,,0827.3,5.00,0.00,30.4,28.9,00.0,39.2,32.3,24.6,0000.0,0003.94,0001.52,0000.71
2022-10-01 08:11:00,,0827.2,5.01,0.00,30.4,28.9,00.0,39.2,32.2,24.6,0000.0,0003.89,0001.50,0000.71
2022-10-01 08:12:00,,0827.1,5.00,0.00,30.4,28.9,00.0,39.2,32.2,24.4,0000.0,0003.78,0001.47,0000.72
2022-10-01 08:13:00,,0827.2,4.99,0.00,30.4,28.9,00.0,39.2,32.2,24.2,0000.0,0003.61,0001.43,0000.71
2022-10-01 08:14:00,,0826.9,5.00,0.00,30.4,28.9,00.0,39.2,32.3,24.1,0000.0,0003.44,0001.42,0000.72
2022-10-01 08:15:00,,0826.9,5.00,0.00,30.4,29.0,00.0,39.2,32.2,24.1,0000.0,0003.33,0001.39,0000.72
2022-10-01 08:16:00,,0826.9,4.99,0.00,30.4,29.0,00.0,39.2,32.2,24.0,0000.0,0004.08,0001.39,0000.73
2022-10-01 08:17:00,,0826.9,4.99,0.00,30.4,29.0,00.0,39.2,32.3,24.0,0000.0,0003.26,0001.34,0000.75
2022-10-01 08:18:00,,0826.8,5.00,0.00,30.4,29.0,00.0,39.2,32.3,24.1,0000.0,0003.17,0001.29,0000.76
2022-10-01 08:19:00,,0826.8,5.00,0.00,30.4,29.0,00.0,39.2,32.2,24.0,0000.0,0003.06,0001.22,0000.76
2022-10-01 08:20:00,,0826.8,5.00,0.00,30.4,29.0,00.0,39.2,32.3,24.1,0000.0,0003.00,0001.20,0000.76
2022-10-01 08:21:00,,0827.1,5.01,0.00,30.5,29.0,00.0,39.2,32.3,24.0,0000.0,0003.19,0001.24,0000.76
2022-10-01 08:22:00,,0827.0,5.00,0.00,30.5,29.0,00.0,39.2,32.3,24.0,0000.0,0003.31,0001.27,0000.77
2022-10-01 08:23:00,,0826.9,5.00,0.00,30.5,29.0,00.0,39.2,32.3,24.1,0000.0,0003.44,0001.33,0000.77
2022-10-01 08:24:00,,0826.9,5.00,0.00,30.5,29.0,00.0,39.2,32.3,24.2,0000.0,0003.59,0001.36,0000.77
2022-10-01 08:25:00,,0826.9,5.00,0.00,30.5,29.0,00.0,39.2,32.3,24.3,0000.0,0003.75,0001.40,0000.78
2022-10-01 08:26:00,,0826.9,4.99,0.00,30.5,29.0,00.0,39.2,32.3,24.5,0000.0,0003.66,0001.37,0000.78
2022-10-01 08:27:00,,0826.9,5.00,0.00,30.5,28.9,00.0,39.2,32.3,24.5,0000.0,0002.91,0001.31,0000.78
2022-10-01 08:28:00,,0826.9,5.01,0.00,30.5,28.9,00.0,39.2,32.3,24.5,0000.0,0003.32,0001.31,0000.76
2022-10-01 08:29:00,,0827.0,4.99,0.00,30.4,28.9,00.0,39.2,32.2,24.5,0000.0,0003.32,0001.29,0000.76
2022-10-01 08:30:00,,0827.2,5.00,0.00,30.5,28.9,00.0,39.2,32.3,24.4,0000.0,0003.41,0001.34,0000.77
2022-10-01 08:31:00,,0827.0,4.99,0.00,30.5,28.9,00.0,39.2,32.3,24.4,0000.0,0003.52,0001.40,0000.78
2022-10-01 08:32:00,,0827.0,5.00,0.00,30.4,28.9,00.0,39.2,32.3,24.4,0000.0,0003.65,0001.48,0000.78
2022-10-01 08:33:00,,0827.3,5.01,0.00,30.4,28.9,00.0,39.2,32.2,24.4,0000.0,0003.77,0001.53,0000.79
2022-10-01 08:34:00,,0827.3,5.00,0.00,30.4,28.8,00.0,39.2,32.2,24.5,0000.0,0003.98,0001.55,0000.80
2022-10-01 08:35:00,,0827.0,5.00,0.00,30.4,28.8,00.0,39.2,32.2,24.8,0000.0,0004.01,0001.59,0000.81
2022-10-01 08:36:00,,0827.2,5.00,0.00,30.4,28.8,00.0,39.2,32.2,24.9,0000.0,0004.08,0001.64,0000.81
2022-10-01 08:37:00,,0826.9,4.99,0.00,30.4,28.8,00.0,39.2,32.2,24.9,0000.0,0004.21,0001.70,0000.82
2022-10-01 08:38:00,,0826.9,5.00,0.00,30.4,28.9,00.0,39.2,32.2,24.7,0000.0,0004.39,0001.78,0000.84
2022-10-01 08:39:00,,0826.9,5.00,0.00,30.4,28.9,00.0,39.2,32.2,24.6,0000.0,0004.01,0001.84,0000.86
2022-10-01 08:40:00,,0826.8,5.01,0.00,30.4,29.0,00.0,39.2,32.2,24.6,0000.0,0004.53,0001.87,0000.87
2022-10-01 08:41:00,,0826.8,5.01,0.00,30.4,29.0,00.0,39.2,32.3,24.6,0000.0,0004.73,0001.87,0000.87
2022-10-01 08:42:00,,0826.8,4.99,0.00,30.4,29.0,00.0,39.2,32.3,24.6,0000.0,0004.84,0001.89,0000.87
2022-10-01 08:43:00,,0826.8,5.00,0.00,30.4,29.0,00.0,39.2,32.3,24.6,0000.0,0004.97,0001.88,0000.87
2022-10-01 08:44:00,,0826.8,5.00,0.00,30.4,29.0,00.0,39.2,32.3,24.6,0000.0,0004.94,0001.88,0000.88
2022-10-01 08:45:00,,0826.8,5.00,0.00,30.5,29.0,00.0,39.2,32.3,24.6,0000.0,0005.00,0001.93,0000.89
2022-10-01 08:46:00,,0827.0,4.99,0.00,30.5,29.0,00.0,39.2,32.3,24.7,0000.0,0005.44,0001.95,0000.89
2022-10-01 08:47:00,,0826.8,5.00,0.00,30.5,29.0,00.0,39.2,32.3,24.7,0000.0,0006.31,0001.95,0000.89
2022-10-01 08:48:00,,0826.8,5.01,0.00,30.5,29.0,00.0,39.2,32.3,24.7,0000.0,0007.02,0001.91,0000.89
2022-10-01 08:49:00,,0826.8,5.00,0.00,30.5,29.0,00.0,39.2,32.3,24.6,0000.0,0006.97,0001.89,0000.88
2022-10-01 08:50:00,,0826.8,5.00,0.00,30.5,29.0,00.0,39.2,32.3,24.5,0000.0,0006.80,0001.82,0000.87
2022-10-01 08:51:00,,0826.8,4.99,0.00,30.5,29.0,00.0,39.2,32.3,24.4,0000.0,0006.38,0001.82,0000.89
2022-10-01 08:52:00,,0826.8,5.01,0.00,30.5,29.0,00.0,39.2,32.3,24.4,0000.0,0006.02,0001.83,0000.89
2022-10-01 08:53:00,,0826.7,5.01,0.00,30.5,29.0,00.0,39.2,32.3,24.3,0000.0,0005.93,0001.83,0000.91
2022-10-01 08:54:00,,0826.7,5.00,0.00,30.5,29.0,00.0,39.2,32.3,24.2,0000.0,0005.70,0001.80,0000.92
2022-10-01 08:55:00,,0826.7,5.00,0.00,30.5,29.0,00.0,39.3,32.3,24.1,0000.0,0005.83,0001.82,0000.92
2022-10-01 08:56:00,,0826.7,5.00,0.00,30.5,29.1,00.0,39.3,32.3,24.1,0000.0,0005.70,0001.79,0000.93
2022-10-01 08:57:00,,0826.6,5.00,0.00,30.5,29.1,00.0,39.2,32.3,24.1,0000.0,0005.30,0001.79,0000.94
2022-10-01 08:58:00,,0826.6,4.99,0.00,30.5,29.1,00.0,39.3,32.3,24.1,0000.0,0004.35,0001.77,0000.95
2022-10-01 08:59:00,,0826.6,5.00,0.00,30.5,29.0,00.0,39.3,32.3,24.2,0000.0,0003.93,0001.87,0000.97
